Theta_e
318 319 319 319 319 320 320 320 321 322 322 323 323 323 323 323 322 323 313 317 320 330 326 318 320 318 320 316 316 315 311 308 309 310 312 316 317 323 318 315 315 316 317 332 347
318 319 319 319 319 320 320 320 321 322 322 323 323 323 323 323 322 314 324 332 333 333 317 316 314 317 315 314 315 314 311 309 312 313 312 316 319 317 317 313 313 316 324 338 343
317 318 319 319 319 319 320 320 321 322 322 322 322 322 323 324 314 312 330 335 337 328 319 318 317 316 312 314 312 312 309 311 310 311 314 313 314 315 314 312 315 314 322 333 336
317 318 318 319 319 319 320 320 321 322 322 322 321 322 323 324 303 315 336 339 337 322 318 316 315 312 311 309 311 308 310 311 310 310 311 310 313 311 312 312 313 319 326 333 333
317 318 318 318 319 319 320 320 321 321 321 321 322 323 322 313 311 320 335 334 324 318 315 314 313 312 309 310 310 309 310 310 310 310 311 311 309 309 311 315 314 325 330 331 331
317 317 317 318 319 319 319 319 319 319 320 321 322 322 318 307 319 322 321 318 317 317 315 315 313 314 311 310 310 310 310 309 310 310 310 308 309 311 314 316 312 321 326 328 330
317 316 317 318 319 319 319 318 318 319 320 322 324 320 315 310 322 322 321 318 317 316 314 315 315 314 313 309 311 311 307 309 308 309 308 311 307 308 314 313 313 318 324 327 329
317 316 316 317 318 319 319 318 318 319 321 323 323 320 312 321 322 319 319 317 318 318 316 316 317 315 313 313 310 307 307 304 308 308 308 308 304 311 315 314 313 317 322 324 326
317 316 316 317 318 318 318 317 318 320 322 323 319 316 310 321 315 318 318 314 316 317 317 315 316 313 312 308 305 306 301 303 304 308 308 307 305 311 315 314 312 316 319 322 324
316 316 316 316 317 317 316 316 319 320 321 321 316 313 314 311 316 317 318 316 314 314 314 313 312 308 309 306 299 301 301 303 303 307 308 306 307 311 314 312 312 315 319 321 322
316 315 315 316 316 316 317 321 318 315 318 312 312 311 312 317 318 314 316 315 314 313 308 310 305 302 305 307 306 304 303 303 305 307 307 307 307 309 312 314 313 316 319 320 322
315 315 315 315 316 315 321 318 316 317 310 314 313 313 315 317 311 313 317 311 310 307 309 307 304 306 307 306 305 305 303 302 304 307 307 306 305 310 312 313 315 317 319 320 322
314 314 315 315 315 320 321 317 322 320 313 312 313 312 313 315 309 310 314 311 308 305 305 304 306 307 306 305 304 304 303 302 302 304 307 306 304 307 311 313 316 318 320 321 321
313 313 314 313 317 324 320 321 323 322 310 308 310 312 314 313 308 313 314 311 308 305 306 306 307 305 305 303 305 302 305 303 302 302 299 305 296 305 309 311 314 316 319 320 322
312 313 313 311 324 320 319 323 323 321 297 308 308 315 313 309 310 310 316 313 306 306 307 304 304 304 303 304 305 303 305 304 304 303 302 302 298 304 308 307 311 315 317 318 319
312 313 313 318 323 319 323 324 324 309 295 304 308 306 306 308 308 310 311 315 313 308 308 307 310 308 307 306 306 306 305 306 306 303 296 301 298 300 304 307 311 314 316 316 316
311 312 315 319 320 326 325 321 307 301 308 303 305 307 305 304 305 306 306 306 305 301 302 305 305 308 308 305 307 306 305 297 295 295 295 300 297 300 306 307 311 313 314 315 315
310 309 312 322 325 325 323 311 298 304 304 308 307 306 303 307 306 306 305 305 308 306 303 300 298 304 307 305 304 303 303 296 289 292 295 300 294 301 306 309 312 313 315 315 314
308 331 327 324 324 325 314 302 304 305 306 305 307 304 304 306 306 306 306 305 306 308 302 301 300 306 305 307 306 303 301 304 299 300 294 298 300 304 306 307 308 309 311 312 313
326 326 321 324 325 324 310 302 306 308 308 307 303 305 301 304 304 305 305 307 305 307 310 306 299 304 305 306 305 305 305 299 301 290 289 295 295 297 302 304 307 308 309 312 313
324 318 321 324 325 318 308 307 307 309 309 307 305 304 304 302 303 303 303 306 307 307 309 308 305 302 304 302 301 303 301 300 299 297 291 290 297 304 304 305 306 307 309 311 312
321 310 322 323 311 314 310 307 302 307 310 308 309 306 304 304 303 302 302 306 309 308 305 308 307 301 300 302 303 303 301 300 296 293 296 295 295 306 305 306 307 307 309 310 312
312 314 322 322 306 309 308 306 307 307 307 307 306 307 308 305 301 303 305 307 308 308 307 308 304 299 298 301 303 301 301 302 299 299 294 291 295 304 306 306 307 307 309 310 311
312 306 312 314 313 308 305 305 304 308 306 307 307 308 306 304 306 303 304 306 307 307 304 308 305 301 296 299 301 298 298 300 299 295 295 295 296 300 303 304 306 308 309 309 309
312 307 308 304 306 307 307 305 302 302 307 308 306 306 304 301 303 302 305 306 306 305 308 309 302 302 302 300 300 299 298 298 297 299 294 296 296 301 304 305 306 307 307 307 307
310 308 311 309 306 305 302 305 303 303 304 303 304 305 306 304 304 302 303 305 304 307 307 307 302 302 299 300 299 296 298 299 299 298 298 298 298 305 307 307 305 306 306 305 306
315 315 311 302 305 304 305 304 303 306 306 306 306 306 305 306 308 309 310 308 308 305 304 304 303 299 295 296 296 294 298 298 298 300 300 296 302 306 304 304 305 305 306 305 306
Wind_Speed
6 6 6 7 7 8 8 8 8 9 8 10 10 10 10 10 9 8 4 5 2 4 4 3 7 5 7 4 4 4 8 9 7 8 9 11 10 4 3 8 4 3 7 12 15
7 7 7 7 7 8 8 9 9 9 10 10 10 11 10 8 10 8 4 1 3 3 8 5 7 8 6 5 4 9 10 4 5 2 5 13 11 9 8 8 5 7 11 12 14
7 7 7 7 8 8 8 9 9 10 10 11 11 12 9 9 7 6 5 4 5 7 4 3 4 8 6 5 4 5 9 9 6 1 5 12 8 4 9 10 7 8 13 13 12
8 8 8 8 8 9 9 10 10 11 11 12 12 12 11 8 1 5 4 3 5 7 5 3 6 9 7 8 3 7 5 1 6 4 4 8 7 6 6 9 7 9 12 12 12
8 8 8 9 9 9 10 10 10 10 11 11 12 11 7 8 8 5 4 5 7 4 3 1 4 5 7 6 6 5 9 8 6 4 4 5 8 7 6 10 5 8 8 11 11
8 8 8 9 9 9 10 11 11 10 10 11 12 14 7 6 3 1 3 4 5 4 3 5 4 3 5 5 4 5 8 9 4 7 5 8 9 5 8 10 4 9 9 10 13
9 9 9 9 9 10 10 11 10 10 10 9 9 6 7 7 1 4 4 2 2 4 3 4 4 7 5 10 5 8 9 9 3 4 7 8 11 5 6 5 7 11 10 11 12
10 9 10 10 10 10 11 12 12 11 10 7 6 6 3 3 4 6 3 4 2 1 4 3 4 2 3 7 7 8 6 11 7 7 5 9 14 8 6 3 10 12 11 12 13
12 10 10 11 10 10 11 13 12 9 6 6 6 6 7 7 6 2 4 2 2 2 1 1 5 1 6 11 10 9 12 10 8 4 5 12 8 5 6 4 10 13 13 13 11
14 12 11 11 10 10 12 6 1 4 5 5 4 7 4 4 3 4 1 4 3 3 7 7 7 9 10 10 10 6 9 6 6 6 5 7 3 4 6 5 9 12 13 12 12
15 13 12 12 11 10 7 5 6 7 6 6 5 4 2 3 2 4 1 4 4 7 8 5 10 13 16 8 6 5 5 8 6 3 2 1 1 4 4 1 7 10 12 13 11
16 14 12 12 11 8 7 4 5 6 3 2 3 6 4 4 3 4 3 4 4 1 5 10 3 4 1 5 7 7 7 4 5 3 7 4 3 2 3 1 5 10 12 13 12
17 14 12 12 10 5 5 6 6 4 6 4 1 2 1 4 2 4 5 1 2 2 3 7 9 5 7 8 8 3 5 3 6 4 5 6 11 7 4 5 5 9 11 13 13
18 14 11 12 1 1 2 7 6 6 7 5 5 4 5 3 3 3 3 4 3 3 2 5 5 6 7 4 7 7 2 2 3 7 8 6 8 10 8 8 10 11 12 12 10
19 14 10 6 4 2 6 8 2 5 4 4 5 3 2 4 2 5 2 3 4 4 6 7 5 6 7 3 4 7 2 4 6 11 8 13 9 11 9 10 12 13 14 11 10
20 13 8 4 2 5 7 2 5 8 4 5 2 2 7 4 3 3 2 1 2 2 2 5 1 3 6 3 1 6 7 9 9 9 12 4 6 9 10 13 14 14 14 12 10
19 12 6 3 4 9 6 5 6 5 3 4 1 2 2 2 3 2 2 5 6 5 5 3 3 4 2 6 5 7 8 8 7 8 5 5 7 7 1 1 10 15 14 11 7
19 9 1 4 6 7 5 6 5 2 2 2 1 2 1 4 3 2 3 7 3 7 8 5 7 3 2 4 7 4 6 7 10 11 11 9 7 7 5 6 2 4 11 8 7
16 3 1 8 6 6 7 5 3 1 1 2 4 5 5 3 4 3 2 4 3 3 7 4 3 5 4 1 5 6 6 7 10 11 10 7 4 9 6 6 4 4 3 7 7
4 3 5 11 6 6 5 3 2 1 3 3 3 3 3 2 4 4 1 3 0 3 3 1 8 4 5 3 4 6 4 6 5 6 10 3 4 5 6 3 4 6 4 7 5
3 4 7 9 4 5 3 4 3 3 3 4 1 2 1 2 3 3 1 4 3 2 3 3 5 7 5 2 7 5 6 3 6 6 9 9 3 8 7 7 9 11 9 7 5
4 4 7 6 5 1 1 2 1 0 1 1 1 1 2 1 4 4 4 5 5 4 4 3 5 7 4 3 2 4 3 4 5 5 4 7 7 7 6 8 7 6 3 5 8
5 4 4 5 3 2 3 2 1 1 1 1 3 2 1 2 4 3 1 3 5 3 4 1 3 7 8 8 5 6 3 2 4 5 10 10 3 4 4 8 6 8 9 9 10
5 2 3 4 2 4 2 1 2 1 1 2 2 4 5 5 3 2 3 3 2 2 4 4 5 10 10 9 5 5 6 6 6 6 10 9 12 9 11 5 5 7 10 13 13
4 4 4 3 4 5 3 2 4 3 2 3 3 8 6 4 5 5 2 3 4 4 2 4 8 5 7 6 8 11 10 9 11 11 8 10 9 9 9 9 10 12 15 16 18
5 4 3 2 3 4 2 1 5 2 3 3 7 2 5 7 5 5 4 3 6 4 2 1 5 7 11 7 11 13 11 8 10 10 9 11 11 6 7 7 12 16 19 18 18
2 2 5 4 1 5 1 2 2 4 2 3 7 6 8 2 3 4 3 2 3 5 3 4 3 6 10 2 8 11 4 4 3 4 7 9 11 10 9 14 16 19 16 15 19
Wind_Direction
327 323 322 319 317 314 314 314 315 313 308 302 302 303 304 307 293 206 139 57 52 157 266 235 216 221 217 186 236 262 247 209 186 224 142 158 167 150 42 139 124 56 51 106 131
326 323 319 316 313 310 310 310 310 310 308 304 304 302 303 309 245 107 60 154 191 241 245 229 184 187 182 179 193 248 246 243 43 294 196 163 189 148 174 157 139 135 112 126 137
328 322 315 311 307 305 305 306 306 306 305 306 308 307 304 285 202 77 52 222 224 247 270 257 211 219 179 209 152 175 259 106 139 149 189 149 138 178 212 192 152 163 138 139 134
327 322 314 309 305 303 303 303 303 306 308 309 308 305 309 238 165 71 31 211 224 273 240 194 201 194 181 179 155 175 97 103 104 121 168 178 128 102 30 29 0 30 120 138 139
334 325 319 313 309 306 303 301 301 303 303 304 305 305 264 207 104 90 138 179 232 259 8 21 171 187 184 143 159 168 121 99 112 139 142 142 187 131 57 0 9 112 141 140 128
342 331 322 313 306 302 300 298 298 298 297 303 304 306 248 173 71 282 304 231 264 273 37 20 38 2 117 127 262 130 125 120 120 128 142 173 131 207 33 340 199 158 141 149 149
344 334 322 313 305 302 299 297 296 295 291 292 298 299 256 77 221 294 246 332 4 327 347 22 3 257 165 126 134 138 158 151 123 135 127 136 161 94 2 326 180 170 160 152 153
344 331 322 313 306 305 301 298 293 287 284 277 280 269 64 113 309 245 223 191 184 223 316 327 301 95 298 118 158 192 235 209 106 196 145 219 167 99 3 297 194 182 169 163 147
344 332 322 312 307 305 301 296 283 267 242 258 244 279 111 144 193 52 282 234 295 193 108 252 259 303 176 205 193 197 240 217 131 166 174 219 128 48 358 276 220 188 180 163 148
343 334 324 313 311 308 304 281 24 188 205 230 260 237 156 70 12 321 206 261 251 205 185 217 221 221 223 228 248 177 214 206 178 105 213 206 130 42 4 282 209 194 185 162 168
342 335 325 315 314 311 287 208 207 180 213 338 13 340 99 347 209 178 203 218 215 223 237 194 230 216 222 233 329 251 240 176 105 89 239 346 290 25 19 120 180 187 171 181 159
343 336 327 317 312 298 262 45 33 353 265 182 274 278 274 312 229 117 246 256 241 242 189 205 212 65 62 201 198 203 197 154 128 119 273 206 232 68 50 95 185 178 178 168 162
342 336 327 317 310 268 46 46 322 229 253 127 200 254 103 235 41 69 304 303 326 221 231 307 92 140 185 169 181 200 279 156 326 153 239 229 221 200 129 145 166 181 177 177 178
341 335 326 320 224 45 93 339 306 207 235 113 155 125 189 250 152 356 351 319 192 30 348 52 121 180 192 173 276 212 119 229 222 248 292 205 291 178 173 171 184 179 184 177 158
341 334 321 313 356 312 358 328 147 224 204 113 110 74 181 271 65 123 9 264 25 50 263 85 161 186 230 31 279 47 171 268 279 273 297 199 247 112 172 201 193 189 188 171 180
341 334 315 216 226 31 324 269 229 229 123 139 149 171 190 180 152 127 204 63 9 294 18 76 84 301 19 102 334 135 225 234 251 261 245 97 272 180 174 224 190 192 189 187 188
340 332 308 294 3 334 308 221 233 283 147 128 122 286 226 117 177 320 254 219 282 266 183 176 118 119 266 203 179 230 256 283 251 209 293 106 263 297 271 217 201 193 192 191 196
334 313 127 32 326 311 262 232 251 79 56 105 356 130 200 340 137 303 255 248 167 267 279 271 192 189 22 328 344 333 320 297 305 304 318 157 255 89 23 68 21 296 186 182 212
318 187 34 358 329 289 260 234 45 63 349 315 192 235 147 132 301 271 339 331 9 317 273 264 204 125 51 292 303 115 259 16 287 250 263 269 113 162 128 122 130 120 175 213 223
304 240 49 339 322 265 251 44 131 39 323 248 268 298 262 20 275 284 240 53 56 351 290 21 266 199 126 245 93 310 29 253 227 287 301 261 244 324 98 94 142 191 233 228 242
264 238 38 343 267 245 272 81 137 69 324 313 234 234 345 340 315 314 3 98 8 7 272 276 257 139 193 232 338 217 230 230 301 290 292 300 37 50 54 36 355 335 356 346 297
303 240 18 325 242 299 132 24 295 5 354 166 254 295 285 332 302 289 301 6 4 313 282 48 300 269 353 42 277 296 321 283 278 262 279 305 282 69 38 356 343 347 345 342 320
345 333 23 301 272 132 123 154 332 304 39 280 200 263 227 274 286 268 299 57 4 309 336 96 221 256 190 182 178 250 181 291 292 274 271 283 308 101 22 341 345 330 327 307 307
297 275 73 58 45 334 351 164 219 82 223 289 286 230 217 236 219 246 205 84 22 31 12 286 266 271 273 353 346 239 227 252 264 275 274 278 309 352 8 347 312 303 321 315 314
352 65 7 25 68 346 304 315 269 253 238 257 219 250 249 254 245 249 230 180 174 140 205 304 266 275 282 289 281 282 285 249 249 258 273 296 305 335 354 344 335 321 316 324 322
329 324 164 54 304 284 138 177 288 291 273 208 255 198 241 261 280 301 295 264 286 157 248 190 256 278 273 259 277 281 272 258 260 274 272 280 282 41 341 306 321 327 329 321 334
84 140 283 119 231 276 41 337 349 321 217 291 298 251 231 57 0 29 36 58 12 306 242 262 253 265 285 345 291 266 278 235 235 250 301 298 1 341 333 337 329 321 318 342 333